Total_Precipitation_Accumulation
1.29 1.47 1.46 1.36 1.36 1.39 1.49 1.64 1.76 1.61 1.47 1.39 1.28 1.20 1.26 1.37 1.41 1.23 1.16 1.24 1.12 0.93 0.86 0.83 0.81 0.83 0.87 0.91 0.95 1.02 1.08 1.14 1.25 1.43 1.72 2.05 2.36 2.70
1.55 1.64 1.62 1.58 1.57 1.49 1.53 1.62 1.75 1.79 1.58 1.33 1.30 1.25 1.21 1.08 1.19 1.06 1.03 1.17 1.07 0.98 0.91 0.86 0.81 0.80 0.79 0.79 0.76 0.78 0.82 0.84 0.87 0.92 1.02 1.18 1.38 1.64
1.68 1.79 1.82 1.92 1.92 1.74 1.67 1.63 1.67 1.79 1.62 1.38 1.34 1.29 1.15 1.03 1.03 0.97 0.92 0.93 0.90 0.96 0.87 0.80 0.73 0.70 0.71 0.72 0.71 0.71 0.71 0.71 0.74 0.78 0.83 0.89 0.93 1.02
1.77 1.99 2.00 1.97 1.88 1.76 1.77 1.69 1.66 1.80 1.74 1.55 1.52 1.42 1.32 1.17 1.10 1.04 0.90 0.87 0.91 1.08 0.98 0.84 0.75 0.70 0.66 0.64 0.64 0.66 0.70 0.72 0.73 0.75 0.77 0.81 0.82 0.83
1.81 1.87 1.87 1.94 1.85 1.79 1.71 1.67 1.65 1.78 1.89 1.76 1.73 1.71 1.57 1.40 1.31 1.17 1.04 1.03 0.89 0.92 0.92 0.84 0.78 0.72 0.70 0.69 0.70 0.69 0.67 0.66 0.67 0.69 0.72 0.78 0.81 0.81
1.80 1.86 1.88 1.87 1.92 2.02 1.90 1.84 1.89 1.95 2.02 1.98 1.91 2.00 1.92 1.71 1.54 1.35 1.19 1.09 1.00 0.83 0.86 0.87 0.82 0.74 0.68 0.63 0.61 0.61 0.64 0.64 0.62 0.64 0.64 0.68 0.76 0.84
1.75 1.72 1.77 1.95 2.04 2.06 1.91 1.91 2.02 2.00 1.97 1.99 1.95 2.05 2.06 1.92 1.62 1.37 1.28 1.24 1.16 1.01 0.93 0.81 0.79 0.77 0.75 0.74 0.73 0.71 0.65 0.65 0.64 0.63 0.64 0.68 0.74 0.87
1.71 1.64 1.56 1.60 1.70 1.79 1.75 1.70 1.75 1.80 1.86 1.87 1.88 1.93 1.97 1.89 1.70 1.52 1.39 1.29 1.24 1.20 1.21 1.15 1.02 1.00 0.89 0.79 0.83 0.79 0.74 0.71 0.70 0.70 0.71 0.72 0.76 0.88
1.41 1.38 1.21 1.13 1.34 1.42 1.56 1.54 1.45 1.41 1.44 1.58 1.70 1.73 1.86 1.91 1.87 1.67 1.60 1.50 1.34 1.30 1.33 1.33 1.24 1.12 0.93 0.89 0.98 0.85 0.81 0.80 0.80 0.81 0.79 0.75 0.71 0.72
1.18 1.14 1.13 1.11 1.17 1.26 1.33 1.34 1.29 1.25 1.25 1.26 1.37 1.56 1.73 1.88 1.89 1.80 1.75 1.64 1.45 1.33 1.33 1.35 1.26 1.17 1.02 0.97 1.02 0.93 0.86 0.83 0.81 0.86 0.95 0.93 0.78 0.71
1.21 1.26 1.25 1.14 1.19 1.16 1.15 1.17 1.18 1.23 1.24 1.23 1.26 1.43 1.62 1.73 1.87 1.82 1.76 1.66 1.49 1.35 1.29 1.26 1.22 1.25 1.18 1.05 0.95 0.90 0.76 0.69 0.67 0.68 0.81 1.05 1.13 0.96
1.34 1.30 1.23 1.09 1.05 0.99 0.99 1.07 1.05 1.06 1.16 1.19 1.19 1.29 1.42 1.55 1.71 1.68 1.59 1.60 1.46 1.33 1.20 1.20 1.18 1.20 1.23 1.07 0.90 0.78 0.70 0.68 0.65 0.66 0.81 1.13 1.28 1.12
1.33 1.28 1.22 1.13 0.97 0.91 0.86 0.89 0.92 0.98 1.05 1.10 1.19 1.30 1.44 1.56 1.58 1.57 1.56 1.47 1.40 1.20 1.02 1.10 1.08 1.03 0.99 0.92 0.82 0.75 0.68 0.63 0.61 0.64 0.73 0.98 1.23 1.17
1.48 1.38 1.31 1.18 0.96 0.89 0.80 0.81 0.85 0.84 0.95 1.04 1.10 1.20 1.32 1.47 1.57 1.63 1.63 1.51 1.33 1.20 1.12 1.12 1.08 1.02 0.93 0.84 0.77 0.72 0.72 0.67 0.63 0.61 0.62 0.77 0.89 1.15
1.50 1.57 1.41 1.24 1.06 0.93 0.92 0.89 0.83 0.78 0.91 1.03 1.02 1.06 1.14 1.27 1.53 1.74 1.84 1.76 1.49 1.21 1.10 1.03 0.97 0.95 0.94 0.81 0.69 0.64 0.66 0.69 0.65 0.64 0.65 0.68 0.80 1.00
1.53 1.57 1.44 1.31 1.14 1.00 0.96 0.87 0.77 0.76 0.84 0.94 1.01 1.08 1.18 1.28 1.41 1.57 1.76 1.79 1.62 1.25 1.05 0.99 0.94 0.96 0.92 0.81 0.71 0.61 0.57 0.63 0.66 0.70 0.77 0.81 0.92 1.04
1.59 1.66 1.60 1.48 1.36 1.22 1.12 1.06 1.01 0.96 0.91 0.93 1.05 1.10 1.15 1.16 1.22 1.35 1.55 1.65 1.51 1.17 0.97 0.95 0.99 1.02 1.00 0.99 0.87 0.68 0.61 0.58 0.62 0.73 0.86 0.88 0.91 0.94
1.39 1.55 1.55 1.44 1.36 1.32 1.28 1.22 1.15 1.08 1.02 1.00 1.03 1.07 1.08 1.10 1.16 1.25 1.36 1.45 1.40 1.21 1.03 0.92 1.00 1.09 1.06 0.98 0.84 0.70 0.64 0.62 0.64 0.76 0.83 0.82 0.80 0.81
1.09 1.28 1.28 1.25 1.23 1.24 1.21 1.12 1.05 1.05 1.07 1.03 0.98 1.03 1.08 1.11 1.14 1.22 1.27 1.37 1.41 1.36 1.21 1.06 1.02 1.03 0.93 0.76 0.67 0.64 0.64 0.66 0.71 0.75 0.78 0.77 0.71 0.70
0.91 1.05 1.10 1.11 1.14 1.19 1.17 1.16 1.11 1.12 1.13 1.09 1.07 1.09 1.17 1.20 1.19 1.22 1.29 1.32 1.36 1.38 1.33 1.17 1.01 0.93 0.84 0.73 0.67 0.60 0.56 0.62 0.70 0.72 0.72 0.75 0.72 0.71
0.94 1.01 1.06 1.07 1.10 1.17 1.18 1.18 1.17 1.19 1.17 1.18 1.18 1.19 1.26 1.32 1.23 1.17 1.21 1.27 1.23 1.27 1.23 1.10 0.99 1.02 1.04 1.04 0.85 0.64 0.59 0.58 0.62 0.68 0.74 0.79 0.76 0.76
1.02 1.01 1.08 1.10 1.11 1.11 1.14 1.14 1.16 1.19 1.19 1.19 1.24 1.27 1.27 1.28 1.20 1.17 1.16 1.21 1.16 1.12 1.13 1.18 1.28 1.31 1.21 1.09 0.87 0.73 0.71 0.70 0.68 0.67 0.65 0.66 0.66 0.63
1.03 1.04 1.06 1.03 1.03 1.04 1.07 1.08 1.15 1.18 1.18 1.17 1.22 1.27 1.27 1.24 1.19 1.18 1.16 1.17 1.21 1.22 1.29 1.36 1.43 1.38 1.21 1.09 0.96 0.86 0.83 0.83 0.79 0.74 0.67 0.61 0.53 0.47